Weather History for CWEU - October, 2013

Change the Weather History Date:

Saturday, October 26, 2013

  Actual Average Record
Temperature  
Mean Temperature -14 °F -  
Max Temperature -2 °F -17 °F 84 °F (1998)
Min Temperature -26 °F -30 °F -31 °F (1996)
Degree Days  
Heating Degree Days 79    
Moisture  
Dew Point -18 °F    
Average Humidity 72    
Maximum Humidity 78    
Minimum Humidity 52    
Precipitation  
Precipitation 0.01 in 0.01 in - ()
Sea Level Pressure  
Sea Level Pressure 29.68 in    
Wind  
Wind Speed 6 mph ()    
Max Wind Speed 22 mph    
Max Gust Speed 22 mph    
Visibility 4.6 miles    
Events Fog , Snow    
Averages and records for this station are not official NWS values.
T = Trace of Precipitation, MM = Missing Value Source: Averaged Metar Reports

Daily Weather History Graph

Daily Weather History Graph

Search for Another Location

Airport or City:

Trip Planner

Search our weather history database for the weather conditions in past years. The results will help you decide how hot, cold, wet, or windy it might be!

Date:

Astronomy

Dec. 31, 1969 Rise Set
Actual Time Sun does not rise Sun does not rise
Civil Twilight 9:10 AM CDT 3:42 PM CDT
Nautical Twilight 6:36 AM CDT 6:14 PM CDT
Astronomical Twilight 4:11 AM CDT 8:37 PM CDT
Moon No Moon Rise No Moon Set
Length of Visible Light 6h 31m
Length of Day
0h 00m
Waning Gibbous, 53% of the Moon is Illuminated
Oct 26
Waning Gibbous
Oct 26
Last Quarter
Nov 3
New
Nov 9
First Quarter
Nov 17
Full

Hourly Weather History & Observations

Time (CDT) Temp. Windchill Dew Point Humidity Pressure Visibility Wind Dir Wind Speed Gust Speed Precip Events Conditions
12:00 AM -16.6 °F - -27.4 °F 58% 29.80 in 15.0 mi SE 2.3 mph - N/A   Clear
1:00 AM -18 °F - -23 °F 63% 29.80 in 3 mi ENE 2.3 mph - - Snow Snow
1:00 AM -16.6 °F - -23.8 °F 70% 29.80 in 3.0 mi ENE 2.3 mph - N/A   Ice Crystals
2:00 AM -20.2 °F - -25.6 °F 76% 29.80 in 7.0 mi Calm Calm - N/A   Partly Cloudy
3:00 AM -18.4 °F - -25.6 °F 70% 29.79 in 15.0 mi Calm Calm - N/A   Clear
4:00 AM -25.6 °F - -31.0 °F 76% 29.78 in 15.0 mi Calm Calm - N/A   Clear
5:00 AM -18.4 °F - -27.4 °F 63% 29.78 in 5.0 mi Calm Calm - N/A   Ice Crystals
5:30 AM - - - N/A% - 0.5 mi Calm Calm - N/A   Ice Crystals
6:00 AM -18.4 °F - -27.4 °F 63% 29.77 in 0.8 mi Calm Calm - N/A   Ice Crystals
6:33 AM - - - N/A% - 0.5 mi Calm Calm - N/A Fog , Snow Light Snow Grains
7:00 AM -18 °F - -26 °F 52% 29.75 in 1 mi Calm Calm - - Snow Snow Grains
7:00 AM -18.4 °F - -25.6 °F 70% 29.75 in 0.6 mi Calm Calm - N/A Snow Light Snow Grains
8:00 AM -18.4 °F - -23.8 °F 76% 29.72 in 1.5 mi ESE 2.3 mph - N/A Snow Light Snow Grains
8:27 AM - - - N/A% - 2.0 mi ESE 3.5 mph - N/A   Ice Crystals
9:00 AM -16.6 °F -26.8 °F -22.0 °F 76% 29.70 in 1.5 mi SE 3.5 mph - N/A   Ice Crystals
10:00 AM -14.8 °F - -20.2 °F 77% 29.67 in 5.0 mi East 2.3 mph - N/A   Ice Crystals
10:47 AM - - - N/A% - 3.0 mi SE 4.6 mph - N/A   Ice Crystals
11:00 AM -14.8 °F -27.2 °F -20.2 °F 77% 29.65 in 4.0 mi SE 4.6 mph - N/A   Ice Crystals
12:00 PM -13.0 °F -28.6 °F -18.4 °F 77% 29.63 in 3.0 mi SE 6.9 mph - N/A   Mostly Cloudy
12:35 PM - - - N/A% - 1.2 mi SSE 5.8 mph - N/A   Overcast
1:00 PM -7 °F - -11 °F 71% 29.62 in 1 mi SE 5.8 mph - - Snow Light Snow
1:00 PM -5.8 °F -19.9 °F -11.2 °F 77% 29.62 in 1.2 mi SE 6.9 mph - N/A   Overcast
1:52 PM - - - N/A% - 1.2 mi SSE 16.1 mph - N/A   Unknown
2:00 PM -2.2 °F -24.7 °F -7.6 °F 78% 29.59 in 1.2 mi SSE 19.6 mph - N/A Snow Light Snow
2:07 PM - - - N/A% - 0.8 mi SSE 21.9 mph - N/A   Unknown
2:29 PM - - - N/A% - 0.5 mi SSE 21.9 mph - N/A   Unknown
3:00 PM -2.2 °F -24.7 °F -7.6 °F 78% 29.59 in 0.8 mi SSE 19.6 mph - N/A Snow Light Snow
3:25 PM - - - N/A% - 1.2 mi SSE 17.3 mph - N/A   Unknown
3:49 PM - - - N/A% - 1.8 mi SE 18.4 mph - N/A   Unknown
4:00 PM -2.2 °F -22.9 °F -7.6 °F 78% 29.59 in 1.5 mi SE 16.1 mph - N/A Snow Light Snow
4:29 PM - - - N/A% - 1.2 mi SSE 17.3 mph - N/A   Unknown
5:00 PM -4.0 °F -25.2 °F -9.4 °F 78% 29.58 in 1.8 mi SSE 16.1 mph 21.9 mph N/A Snow Blowing Snow
5:48 PM - - - N/A% - 7.0 mi SSE 13.8 mph - N/A   Unknown
6:00 PM -4.0 °F -23.7 °F -9.4 °F 78% 29.59 in 7.0 mi SSE 13.8 mph - N/A Snow Low Drifting Snow
7:00 PM -6 °F - -12 °F 64% 29.58 in 15 mi SSE 13.8 mph - -   Partly Cloudy
7:00 PM -5.8 °F -25.2 °F -11.2 °F 77% 29.58 in 15.0 mi SSE 12.7 mph 18.4 mph N/A   Clear
8:00 PM -5.8 °F -29.4 °F -11.2 °F 77% 29.59 in 15.0 mi SSE 19.6 mph - N/A   Clear
9:00 PM -4.0 °F -25.8 °F -11.2 °F 71% 29.59 in 15.0 mi SE 17.3 mph - N/A   Mostly Cloudy
9:52 PM - - - N/A% - 4.0 mi SE 11.5 mph - N/A   Unknown
10:00 PM -4.0 °F -22.1 °F -11.2 °F 71% 29.59 in 4.0 mi SSE 11.5 mph 18.4 mph N/A Snow Blowing Snow
11:00 PM -5.8 °F -27.5 °F -13.0 °F 71% 29.60 in 3.0 mi SSE 16.1 mph - N/A Snow Blowing Snow